Home > Weather > Toruń > Past weeks

Flag for Poland Past Weather in Toruń, Poland — Yesterday and Last 2 Weeks

Now
88 °F

Sunny.


Feels Like: 85 °F
Forecast: 60 / 88 °F
Wind: 1 mph from Northwest

Location: Torun

Current Time: Aug 27, 2016 at 5:23:04 PM

Latest Report: Aug 27, 2016 at 4:00 PM


Visibility: 19 mi

Pressure: 30.09 "Hg

Humidity: 31%

Dew Point: 53 °F

Location of ToruńLocation

Past Weather in Toruń — Graph

°F

Toruń Temperature Yesterday

Maximum temperature yesterday: 85 °F (at 4:00 PM)
Minimum temperature yesterday: 58 °F (at 6:00 AM)
Average temperature yesterday: 72 °F

High & Low Weather Summary for the Past Weeks

 TemperatureHumidityPressure
High88 °F (Aug 27, 4:00 PM)100% (Aug 23, 2:00 AM)30.36 "Hg (Aug 23, 2:00 AM)
Low45 °F (Aug 17, 6:00 AM)27% (Aug 26, 4:00 PM)29.79 "Hg (Aug 18, 5:00 AM)
Average64 °F71%30.09 "Hg
* Reported Aug 12 4:00 PM — Aug 27 4:00 PM, Toruń, Weather by CustomWeather, © 2016

Note: Actual official high and low records may vary slightly from our data, if they occured in-between our weather recording intervals... More about our weather records

Advertising

Toruń Weather History for the Previous 24 Hours

Scroll right to see more
 ConditionsComfort  
Time TempWeatherWind HumidityBarometerVisibility
4:00 PM
Sat, Aug 27
88 °FSunny.1 mph31%30.09 "Hg19 mi
3:00 PM87 °FSunny.2 mph33%30.10 "Hg22 mi
2:00 PM86 °FSunny.2 mph34%30.11 "Hg19 mi
1:00 PM85 °FSunny.2 mph36%30.12 "Hg22 mi
12:00 PM82 °FSunny.2 mph43%30.12 "Hg19 mi
11:00 AM78 °FSunny.2 mph49%30.13 "Hg19 mi
10:00 AM74 °FSunny.2 mph55%30.14 "Hg19 mi
9:00 AM69 °FSunny.2 mph63%30.14 "Hg16 mi
8:00 AM65 °FSunny.2 mph69%30.14 "Hg19 mi
7:00 AM62 °FSunny.2 mph76%30.14 "Hg15 mi
6:00 AM57 °FSunny.1 mph81%30.14 "Hg17 mi
5:00 AM60 °FClear.1 mph76%30.14 "Hg19 mi
4:00 AM61 °FClear.1 mph73%30.13 "Hg25 mi
3:00 AM62 °FClear.1 mph69%30.13 "Hg25 mi
2:00 AM65 °FClear.2 mph60%30.13 "Hg31 mi
1:00 AM67 °FClear.2 mph54%30.13 "Hg31 mi
12:00 AM70 °FClear.2 mph49%30.13 "Hg28 mi
11:00 PM
Fri, Aug 26
72 °FClear.3 mph44%30.12 "Hg28 mi
10:00 PM74 °FClear.3 mph41%30.13 "Hg25 mi
9:00 PM76 °FClear.2 mph39%30.11 "Hg31 mi
8:00 PM78 °FClear.2 mph34%30.11 "Hg28 mi
7:00 PM82 °FSunny.3 mph30%30.10 "Hg31 mi
6:00 PM83 °FSunny.5 mph29%30.10 "Hg28 mi
5:00 PM85 °FSunny.5 mph28%30.11 "Hg28 mi
Weather by CustomWeather, © 2016

See weather overviewHow to use our weather pages